Palacios, TX

9:44 AM CDT on March 26, 2017 (GMT -0500)
Palacios Municipal

Weather History for KPSX - March, 2013

Change the Weather History Date:

Tuesday, March 12, 2013

  Actual Average Record
Temperature  
Mean Temperature 56 °F -  
Max Temperature 71 °F 72 °F 88 °F (1980)
Min Temperature 42 °F 54 °F 28 °F (1948)
Degree Days  
Heating Degree Days 8    
Growing Degree Days 6 (Base 50)    
Moisture  
Dew Point 38 °F    
Average Humidity 51    
Maximum Humidity 74    
Minimum Humidity 29    
Precipitation  
Precipitation 0.00 in - - ()
Sea Level Pressure  
Sea Level Pressure 30.15 in    
Wind  
Wind Speed 7 mph (SE)    
Max Wind Speed 16 mph    
Max Gust Speed -    
Visibility 10 miles    
Events      
Averages and records for this station are not official NWS values.
T = Trace of Precipitation, MM = Missing Value Source: NWS Daily Summary

Daily Weather History Graph

Daily Weather History Graph

Search for Another Location

Airport or City:

Trip Planner

Search our weather history database for the weather conditions in past years. The results will help you decide how hot, cold, wet, or windy it might be!

Date:

Astronomy

Mar. 12, 2013 Rise Set
Actual Time 7:37 AM CDT 7:31 PM CDT
Civil Twilight 7:14 AM CDT 7:55 PM CDT
Nautical Twilight 6:46 AM CDT 8:22 PM CDT
Astronomical Twilight 6:19 AM CDT 8:50 PM CDT
Moon 7:52 AM CDT (3/12) 8:37 PM CDT (3/12)
Length of Visible Light 12h 41m
Length of Day
11h 54m
New Moon, 1% of the Moon is Illuminated
Mar 12
New Moon
Mar 19
First Quarter
Mar 27
Full
Apr 2
Last Quarter
Apr 10
New

Hourly Weather History & Observations

Time (CDT) Temp. Windchill Dew Point Humidity Pressure Visibility Wind Dir Wind Speed Gust Speed Precip Events Conditions
12:53 AM 48.9 °F - 33.1 °F 54% 30.11 in 10.0 mi East 8.1 mph - N/A   Clear
1:53 AM 48.9 °F - 30.9 °F 50% 30.11 in 10.0 mi ESE 8.1 mph - N/A   Clear
2:53 AM 48.9 °F - 30.0 °F 48% 30.10 in 10.0 mi East 5.8 mph - N/A   Clear
3:53 AM 46.0 °F - 30.9 °F 56% 30.09 in 10.0 mi Calm Calm - N/A   Clear
4:53 AM 44.1 °F - 32.0 °F 63% 30.09 in - Calm Calm - N/A   Clear
5:53 AM 44.1 °F - 33.1 °F 65% 30.10 in - Calm Calm - N/A   Clear
6:53 AM 42.1 °F 39.2 °F 32.0 °F 67% 30.13 in - East 4.6 mph - N/A   Clear
7:53 AM 42.1 °F 39.2 °F 32.0 °F 67% 30.13 in - East 4.6 mph - N/A   Clear
8:53 AM 54.0 °F - 37.9 °F 55% 30.16 in 10.0 mi Calm Calm - N/A   Clear
9:53 AM 63.0 °F - 34.0 °F 34% 30.18 in 10.0 mi East 9.2 mph - N/A   Clear
10:53 AM 64.9 °F - 34.0 °F 32% 30.20 in 10.0 mi SSW 6.9 mph - N/A   Clear
11:53 AM 64.9 °F - 39.9 °F 40% 30.20 in 10.0 mi South 9.2 mph - N/A   Clear
12:53 PM 66.0 °F - 39.9 °F 38% 30.19 in 10.0 mi SSW 8.1 mph - N/A   Clear
1:53 PM 66.9 °F - 42.1 °F 40% 30.17 in 10.0 mi SSW 10.4 mph - N/A   Clear
2:53 PM 68.0 °F - 42.1 °F 39% 30.16 in 9.0 mi South 10.4 mph - N/A   Clear
3:53 PM 71.1 °F - 37.0 °F 29% 30.14 in 10.0 mi South 10.4 mph - N/A   Clear
4:53 PM 70.0 °F - 37.0 °F 30% 30.13 in 10.0 mi SSE 10.4 mph - N/A   Clear
5:53 PM 69.1 °F - 42.1 °F 38% 30.14 in 10.0 mi SE 13.8 mph - N/A   Clear
6:53 PM 64.0 °F - 46.0 °F 52% 30.15 in 10.0 mi SE 16.1 mph - N/A   Clear
7:53 PM 60.1 °F - 46.0 °F 60% 30.17 in 10.0 mi ESE 9.2 mph - N/A   Clear
8:53 PM 57.9 °F - 46.9 °F 67% 30.20 in 10.0 mi East 6.9 mph - N/A   Clear
10:53 PM 57.0 °F - 48.9 °F 74% 30.24 in 10.0 mi ESE 9.2 mph - N/A   Clear
11:53 PM 57.0 °F - 48.9 °F 74% 30.24 in 10.0 mi SE 8.1 mph - N/A   Clear